Wind_Speed
33 34 37 38 35 30 27 23 18 17 18 17 19 25 30 32 31 29 29 26 25 28 26 20 16 16 17 16 14 13 13 14 12 12 14 14 13 12 12 12 13 12 10 10 11 12 12 13 13 13 13 13 13 13 13 12 11 10 10 9 8 8 8 8 7 7 6 6 7 7 7 8 9 10 10 11 12 13 14 14 15 16 17 17 18 18
33 36 40 41 36 29 25 24 21 18 18 17 15 16 24 33 31 28 30 28 26 28 26 22 20 19 18 18 16 15 15 14 11 11 12 13 12 10 11 11 11 11 12 13 13 13 14 14 14 14 14 14 13 13 12 11 10 10 10 9 9 8 8 7 6 6 6 6 6 6 7 8 9 10 11 12 13 13 14 14 14 15 16 17 17 17
34 39 42 40 35 28 25 26 25 21 20 19 17 13 17 30 32 28 31 31 29 29 27 24 24 23 21 20 19 17 17 12 7 7 9 11 11 10 10 11 12 13 13 14 13 14 14 14 15 14 14 13 13 13 13 12 12 11 10 10 9 8 7 6 6 5 5 4 5 5 6 7 8 9 10 10 11 11 12 12 12 13 14 15 15 15
35 40 42 38 33 29 29 29 26 22 22 22 20 15 15 24 31 31 33 34 33 31 27 25 27 26 24 23 22 19 17 14 10 8 9 11 11 8 7 8 10 11 11 11 12 13 15 15 15 14 13 13 14 15 14 13 12 11 10 10 9 8 7 7 6 4 3 2 3 4 5 6 6 7 8 8 9 9 10 11 12 12 13 13 14 13
37 39 39 36 32 30 31 31 28 24 23 23 22 20 16 19 28 32 32 34 36 33 28 26 27 29 29 27 26 22 18 18 17 13 13 15 14 10 9 9 8 9 9 9 11 13 13 14 13 13 13 14 14 14 13 11 10 10 10 10 9 8 8 7 5 3 1 1 2 3 4 5 6 7 8 9 10 10 11 12 13 13 13 14 14 14
38 38 38 37 33 31 32 32 30 27 25 25 24 21 16 15 23 29 31 33 33 30 31 28 20 22 31 31 28 25 22 23 21 20 20 17 16 17 16 15 12 11 11 10 10 11 11 11 12 12 13 13 13 12 11 11 10 10 10 10 9 8 7 6 5 3 2 2 1 2 4 6 8 9 10 11 12 12 13 14 14 15 15 16 16 16
38 38 37 37 35 33 33 33 33 29 26 27 24 19 15 14 19 25 30 33 32 31 34 35 22 15 27 34 31 28 26 25 23 23 23 20 19 21 20 18 16 15 14 13 13 13 13 12 12 11 11 10 10 10 11 11 11 11 10 9 9 8 7 6 5 5 4 3 2 2 3 6 8 9 11 12 13 14 15 16 17 17 17 17 17 16
38 39 37 36 36 34 33 35 35 32 28 27 23 18 14 14 16 23 30 32 35 36 32 35 31 17 23 33 32 31 29 27 28 27 26 25 23 23 22 20 18 17 16 15 15 15 14 13 11 9 8 8 8 10 11 11 11 10 9 8 9 8 7 6 6 6 5 3 1 1 3 5 7 9 10 12 13 15 17 18 18 19 19 18 18 17
36 40 41 38 37 35 36 38 35 33 31 26 20 15 15 15 16 23 31 32 36 34 25 33 34 16 17 31 30 31 34 30 31 30 28 27 26 25 24 22 20 19 17 17 16 16 15 13 12 9 8 9 10 10 10 10 10 10 9 9 9 9 8 8 7 7 6 4 2 1 2 3 5 8 10 12 13 14 15 17 19 20 21 21 20 19
31 37 41 38 38 38 40 40 34 33 32 25 18 16 17 17 19 22 30 36 36 28 24 36 39 18 12 28 31 32 37 34 30 28 27 28 28 26 25 23 22 21 20 20 18 17 15 14 13 12 12 12 12 12 11 12 12 12 11 11 10 10 9 9 9 8 7 5 3 1 0 2 4 7 10 12 13 13 15 16 18 20 22 23 23 22
31 32 36 37 37 40 43 39 35 34 31 25 21 21 21 22 24 23 29 36 27 15 23 38 44 31 13 22 36 36 33 27 21 21 25 28 29 28 26 24 23 23 22 22 21 20 17 15 16 16 16 15 14 15 14 14 14 14 13 13 12 11 11 11 10 10 8 7 5 3 2 1 3 6 8 10 12 14 15 17 19 20 22 24 25 25
32 31 33 36 36 37 40 39 38 35 32 29 26 27 22 18 19 18 19 25 13 7 25 37 43 38 20 21 35 36 32 25 20 18 20 23 24 24 23 22 22 23 24 24 23 22 19 18 20 21 20 19 18 18 17 16 16 16 15 15 15 14 13 13 12 11 10 9 7 5 3 2 3 5 7 9 11 14 15 17 18 20 22 24 26 27
33 35 34 33 34 36 35 36 38 36 33 32 29 28 19 7 8 8 6 10 7 12 27 35 38 35 29 36 38 32 30 28 24 21 19 20 22 21 18 17 19 22 25 26 25 24 22 22 23 24 23 22 22 21 19 18 17 17 17 16 17 16 15 15 14 13 12 11 9 7 6 4 3 4 6 8 11 13 15 17 18 20 22 24 26 27
29 34 37 34 33 36 35 35 37 36 33 32 31 29 19 6 4 3 3 2 5 17 28 31 30 22 25 41 42 34 29 25 24 25 22 20 20 20 16 14 18 21 22 24 25 26 25 23 24 24 23 23 23 22 21 20 18 18 18 17 17 18 18 17 17 16 15 14 12 10 8 6 5 6 7 9 10 13 15 17 19 20 22 23 25 27
22 24 37 40 36 36 36 36 38 35 32 32 31 29 26 19 9 4 6 5 9 19 23 21 18 13 21 35 38 34 29 25 26 27 25 23 23 23 19 15 18 19 20 20 22 25 25 22 22 23 23 22 21 22 22 21 20 20 19 18 18 19 19 19 19 18 18 16 15 12 11 9 8 9 9 10 11 12 15 17 18 20 22 24 26 27
23 25 36 40 38 38 35 35 38 34 30 31 31 29 31 31 24 13 10 16 20 17 13 14 14 16 29 37 34 29 27 30 33 32 31 30 28 26 24 22 21 19 19 19 19 22 22 21 21 22 23 22 19 20 20 20 20 21 21 20 19 20 20 21 21 20 20 19 17 15 13 12 12 11 12 12 12 13 15 17 18 20 21 23 26 28
22 26 32 36 37 39 35 33 36 33 29 29 31 32 31 29 29 22 12 13 17 9 7 16 17 17 25 29 30 30 28 29 32 34 35 34 30 27 25 27 25 21 20 19 18 19 20 20 20 19 21 21 19 18 18 18 18 18 19 20 21 21 22 22 22 23 23 22 21 19 16 15 15 14 15 15 15 15 16 17 18 19 20 22 26 28
21 20 27 33 35 38 37 33 34 35 32 30 31 32 29 26 27 24 11 5 6 3 6 16 19 17 18 17 21 27 24 21 23 25 28 32 32 27 25 28 27 24 21 19 18 18 18 20 18 16 17 17 16 15 15 16 15 15 16 17 20 22 22 22 23 24 25 24 24 22 20 19 18 18 18 17 18 18 19 19 19 19 20 22 25 27
25 19 23 30 31 33 34 32 35 38 35 34 34 32 27 21 20 20 12 3 3 2 3 11 16 18 19 15 14 16 16 15 16 18 22 28 28 24 26 29 28 25 22 20 20 19 18 19 18 17 17 15 14 14 14 15 17 17 17 17 18 20 22 22 24 25 26 26 26 26 24 22 22 22 21 21 21 21 21 21 21 20 21 22 24 26
32 24 22 27 28 27 29 33 38 41 38 35 35 37 37 29 22 24 20 10 6 3 2 6 8 11 16 17 14 13 15 17 17 18 20 22 22 23 27 29 28 25 22 21 20 19 17 17 18 18 17 16 15 14 14 16 18 18 19 19 19 20 22 24 25 26 27 27 28 28 27 26 26 26 25 24 24 24 24 24 23 21 21 21 23 25
37 31 27 28 26 24 28 33 38 41 40 38 36 37 39 33 24 22 22 20 13 6 3 3 4 9 17 20 18 17 18 20 17 16 17 19 22 25 26 27 29 25 21 20 19 18 17 16 17 18 17 17 17 16 16 17 18 19 20 21 21 22 23 25 26 26 27 29 30 30 29 29 29 29 28 28 28 27 27 26 24 22 21 21 23 24
38 35 35 35 30 28 30 30 32 36 37 38 39 39 38 35 26 15 12 19 19 11 7 5 5 13 20 22 21 20 21 21 17 13 14 18 21 23 24 26 27 24 19 18 17 17 17 16 16 17 17 18 19 19 19 19 19 20 22 22 22 24 25 25 26 27 29 32 33 31 30 30 31 31 31 30 30 30 29 27 25 23 21 21 22 23
37 35 35 39 39 35 31 27 25 26 28 31 36 40 39 35 32 21 10 14 19 16 12 8 6 14 22 24 23 22 22 20 17 14 15 19 21 21 22 25 26 23 19 16 15 15 15 15 15 15 17 18 19 19 19 20 20 19 20 21 22 24 25 26 27 29 31 35 36 32 31 32 32 32 32 32 31 31 30 28 25 23 21 21 22 23
38 35 34 37 40 40 37 33 28 24 25 28 32 40 43 38 38 33 23 20 21 20 17 8 3 12 22 25 25 23 21 19 16 15 18 22 23 21 22 25 25 23 20 18 16 14 14 15 15 16 17 17 16 16 17 18 17 17 18 19 21 22 24 27 30 32 33 36 36 32 30 33 34 33 33 32 32 31 29 27 25 23 21 21 22 24
36 35 34 27 22 26 30 31 32 32 31 31 31 35 43 43 41 39 32 25 19 20 22 13 5 14 23 26 26 24 21 18 15 17 21 24 25 23 23 24 23 23 22 21 18 15 15 16 15 14 14 12 11 12 13 14 14 15 16 17 18 19 22 27 31 31 33 37 37 32 30 32 35 35 34 33 32 31 29 26 24 22 20 20 23 25
39 40 39 28 14 12 15 18 28 33 31 30 29 31 38 42 43 41 33 25 19 19 23 18 12 17 22 22 23 23 22 19 16 21 26 27 26 23 22 22 21 21 23 23 20 17 16 14 12 11 9 8 8 9 11 12 13 14 15 15 16 18 22 27 29 29 33 39 39 34 30 31 34 36 36 35 33 31 28 26 24 22 22 23 25 24
42 44 44 41 36 32 31 31 32 31 25 24 26 30 35 37 41 42 35 29 26 23 22 23 19 20 21 20 21 22 21 19 18 22 26 28 28 26 23 21 18 18 20 20 20 19 16 13 10 9 8 7 8 9 10 11 12 13 14 14 15 19 24 27 28 28 32 40 43 37 30 29 32 36 38 37 35 31 28 26 24 22 22 22 20 17
33 39 42 46 48 47 48 45 39 33 27 23 23 27 33 36 39 44 39 35 33 24 21 24 24 22 21 20 20 22 21 20 22 23 24 26 29 28 25 21 18 17 18 19 21 20 17 12 8 7 7 8 9 10 11 12 13 14 14 14 17 22 25 27 29 29 32 41 46 38 31 30 31 36 40 38 35 31 28 28 25 23 21 19 16 15
29 33 37 42 45 46 49 48 45 42 37 32 28 27 31 36 41 45 43 41 38 30 26 28 26 25 25 22 21 21 19 19 20 22 25 28 29 28 25 21 19 17 17 18 21 21 18 12 9 8 8 10 12 12 13 14 15 15 17 18 20 22 24 26 29 28 32 43 47 36 31 34 32 35 40 38 34 32 31 30 28 26 24 19 15 16
32 35 36 38 41 43 45 45 46 45 42 41 39 34 33 37 42 43 43 44 43 39 37 33 28 28 27 22 22 21 20 19 21 25 29 30 29 28 25 21 18 16 16 18 19 20 19 16 13 12 12 13 15 15 16 16 16 17 19 21 22 23 24 25 26 27 30 39 44 35 32 37 33 32 39 38 35 34 31 29 28 27 23 17 15 15
25 35 37 36 37 40 43 43 42 42 41 41 41 38 37 39 41 41 42 45 44 40 38 35 30 28 25 21 22 24 24 26 27 30 32 30 28 27 25 21 19 16 16 18 18 19 20 19 18 17 16 16 17 17 17 17 19 21 22 22 22 23 24 25 25 26 26 34 44 39 33 35 31 28 34 37 35 33 32 31 28 22 15 12 14 15
9 21 30 33 33 38 42 40 39 42 41 39 39 39 39 38 37 36 37 38 37 33 31 32 32 30 26 23 25 28 28 29 30 32 32 31 30 28 25 21 17 15 16 17 18 20 21 20 18 17 15 16 17 18 19 21 23 24 24 24 24 24 26 25 25 25 26 35 46 43 33 31 28 26 33 36 34 35 36 31 22 14 10 11 13 14
7 8 19 29 30 34 39 38 38 38 30 27 33 37 36 33 30 26 25 25 26 26 26 30 32 30 26 23 26 30 31 31 33 34 33 32 30 26 22 17 16 17 18 18 19 21 20 19 17 16 16 18 19 21 23 25 26 26 25 25 25 25 26 25 25 27 29 36 43 39 31 30 28 27 32 36 38 39 34 25 15 9 10 11 12 15
8 10 12 23 29 31 36 36 32 25 14 13 18 20 21 25 26 22 21 20 20 20 18 19 23 25 24 22 24 29 33 34 36 36 33 29 24 21 18 16 17 21 21 21 22 22 20 19 18 18 20 21 22 23 25 27 28 27 26 25 26 27 26 26 27 29 30 34 36 32 30 30 28 27 30 35 39 34 25 19 14 9 9 10 12 15
11 13 13 16 28 29 30 29 20 11 10 16 16 11 10 16 20 21 21 18 17 18 15 13 14 17 18 18 18 22 29 37 39 35 29 23 19 17 17 18 21 23 23 24 24 22 21 20 19 19 18 18 19 21 22 24 24 23 23 23 25 27 27 27 28 28 28 30 30 27 27 29 28 28 28 29 28 21 15 15 12 7 8 10 12 15
16 15 13 11 19 20 24 24 14 8 16 22 22 20 17 13 13 17 19 17 16 16 13 12 14 14 14 13 12 14 23 35 38 31 25 21 20 19 21 23 25 26 26 26 24 21 20 19 18 17 15 15 15 15 17 18 18 19 19 20 23 25 26 26 27 27 27 27 27 25 25 27 29 29 24 19 18 15 13 11 7 6 8 10 13 15
16 13 12 9 12 16 19 18 15 16 18 18 19 22 24 18 10 8 14 17 14 11 8 7 9 12 14 15 15 16 24 33 36 31 27 26 25 25 27 27 27 26 25 24 21 20 20 19 18 17 16 15 14 13 13 14 15 17 19 20 22 24 25 26 28 28 28 28 27 24 23 25 26 22 15 13 15 15 10 6 6 8 10 12 15 17
17 14 13 9 9 15 19 17 13 10 9 11 14 18 21 20 13 10 9 15 14 7 5 5 5 7 11 15 17 20 27 35 36 33 31 30 28 29 29 27 25 23 21 19 18 19 19 19 18 17 17 16 14 13 12 13 15 17 18 20 22 23 25 28 29 30 32 32 28 22 19 18 15 11 11 13 15 13 9 8 9 10 13 16 17 18
16 14 16 13 8 14 20 16 7 3 8 15 16 17 20 21 17 17 16 10 10 6 7 8 6 6 7 13 18 23 29 36 36 32 31 29 26 25 24 22 21 19 17 16 17 18 19 18 18 17 17 17 17 16 16 17 18 19 20 21 22 23 25 28 31 34 36 33 24 14 9 8 7 9 14 16 15 14 12 11 11 13 16 18 19 21
13 9 11 11 10 11 14 14 8 7 14 18 19 21 22 20 18 16 14 11 12 12 9 8 6 8 10 14 20 23 27 30 30 27 26 25 22 21 21 20 18 16 15 16 17 17 18 18 18 18 18 19 20 20 20 21 21 22 22 22 24 24 23 25 30 35 35 28 16 6 7 8 11 14 17 16 15 15 14 13 14 16 18 19 20 22
17 11 8 7 9 9 12 14 12 11 15 17 18 21 21 18 15 15 16 16 18 18 16 15 14 14 15 16 18 20 21 22 22 22 23 23 22 20 20 18 16 16 17 17 17 16 16 17 17 18 19 21 23 24 23 24 24 24 24 24 25 24 21 21 26 31 27 18 9 8 9 11 15 18 18 16 15 15 15 14 15 16 18 20 21 23
17 12 7 5 7 9 14 16 13 12 13 12 13 16 17 14 14 18 22 21 19 20 21 22 22 22 21 20 20 22 22 21 21 22 22 22 21 18 17 17 17 18 17 16 16 15 16 18 19 20 23 25 27 26 26 27 27 27 25 24 25 24 20 18 23 26 20 12 11 11 11 16 21 21 18 16 16 15 14 14 16 19 21 24 24 24
16 14 7 5 6 7 12 13 9 8 10 9 7 8 9 10 15 23 26 21 18 19 21 23 26 26 25 25 24 23 23 21 20 20 19 19 17 15 15 15 14 14 15 15 16 17 19 21 22 25 27 27 28 28 29 30 29 27 25 24 24 24 19 16 20 23 19 16 15 15 18 22 23 20 18 17 16 14 13 16 19 22 23 25 25 25
17 20 13 7 4 4 7 9 7 6 9 7 3 2 5 11 18 24 25 21 19 18 18 21 25 26 25 24 23 21 19 17 15 14 14 14 14 13 12 12 12 11 12 15 17 19 22 23 25 26 27 27 28 29 31 31 28 26 24 22 23 23 18 17 20 21 19 18 18 21 25 24 20 18 17 16 15 15 16 19 22 23 24 25 25 25
18 22 21 15 6 1 4 7 7 6 6 6 4 5 8 13 18 21 22 21 20 20 19 20 21 21 21 21 20 20 19 15 13 13 11 11 13 13 13 14 14 14 15 18 22 25 26 27 26 26 26 27 28 30 30 29 25 22 21 21 20 18 17 19 22 21 19 19 21 24 25 21 17 16 15 15 16 17 19 21 22 22 23 23 24 25
18 21 23 21 14 5 5 6 7 7 7 8 9 10 13 16 18 20 19 18 20 21 20 20 20 19 18 17 17 18 18 17 18 19 16 12 15 20 23 24 23 22 23 27 30 29 29 28 27 27 27 28 29 29 28 25 22 20 20 19 15 13 15 19 22 21 18 20 23 23 20 17 15 15 16 16 16 16 18 20 20 20 21 21 23 24
18 19 20 21 20 14 8 7 7 8 10 12 13 13 14 17 21 22 21 19 20 20 18 17 18 19 20 21 22 22 22 24 27 28 26 21 16 17 23 27 29 29 29 30 30 29 28 28 28 28 29 29 29 28 25 22 20 19 18 15 11 13 16 18 21 20 19 23 24 20 17 17 18 19 18 16 15 16 18 18 18 18 19 20 22 23
19 18 19 20 20 17 13 12 11 11 16 18 18 15 13 14 18 21 20 19 19 19 19 18 18 19 20 22 24 22 20 20 23 25 28 26 20 18 23 28 31 31 30 28 27 26 26 27 27 28 29 28 27 25 22 19 19 18 14 10 10 16 18 19 21 23 25 26 25 21 20 21 22 20 16 15 16 17 17 17 16 17 18 19 21 22
21 18 18 19 19 17 18 20 18 16 16 15 14 15 15 16 18 19 18 18 18 19 20 20 19 20 21 22 24 22 19 19 19 19 20 22 22 25 28 29 29 28 27 26 26 26 27 28 28 28 28 26 24 22 20 18 18 16 12 10 12 18 21 22 24 26 27 27 25 22 22 22 19 15 14 15 17 16 15 15 16 17 19 20 21 23
22 20 19 20 21 20 21 22 20 19 18 17 16 17 18 18 17 16 16 17 17 17 19 20 19 21 23 22 22 23 25 26 24 22 22 23 24 25 26 25 25 25 26 26 27 28 28 29 29 28 27 25 23 21 19 17 16 12 9 10 16 21 23 24 26 26 26 27 25 20 17 15 13 12 14 17 17 16 15 15 16 19 21 22 22 23
21 24 23 21 20 19 21 24 22 20 20 22 22 20 18 17 17 16 15 16 14 14 15 17 17 17 18 16 15 16 20 22 22 23 24 24 24 24 24 25 26 27 28 28 29 30 30 29 28 27 25 23 21 19 17 15 12 8 6 10 18 24 26 27 27 25 24 23 20 16 13 13 13 13 16 18 17 16 16 17 19 22 24 24 24 24
Wind_Direction
200 205 208 207 207 205 207 211 204 189 193 210 205 197 198 196 199 203 202 205 206 208 218 225 226 226 226 226 215 203 201 200 197 190 190 200 208 212 212 213 217 218 216 219 219 214 209 210 213 218 219 219 222 226 232 234 235 238 241 241 240 238 238 239 241 249 261 271 276 280 283 288 293 297 298 298 301 302 303 304 304 305 306 304 303 305
202 208 209 207 208 206 210 210 205 208 213 219 221 214 203 201 205 205 202 205 205 210 220 222 225 227 231 232 219 206 208 215 215 203 198 200 202 204 204 207 211 213 218 222 221 217 213 213 215 219 221 220 220 225 230 228 225 230 233 235 237 235 235 236 241 251 261 271 280 289 296 303 309 310 311 310 310 311 311 310 310 308 308 307 308 310
204 210 208 207 209 207 210 212 212 220 227 225 224 231 216 204 204 203 202 204 205 212 219 221 222 225 230 231 223 222 229 239 245 229 217 208 202 197 196 201 207 211 218 220 219 218 216 215 217 220 219 215 214 216 219 219 218 220 222 225 229 230 231 231 234 245 257 274 293 307 313 318 320 319 321 323 322 322 322 322 322 320 317 316 316 315
203 208 207 205 207 207 209 213 216 223 230 230 226 229 232 211 200 197 200 203 206 211 219 222 220 221 222 221 223 232 242 247 247 240 234 228 224 214 202 202 211 220 224 220 218 218 217 216 216 215 214 211 209 210 212 213 214 211 210 214 218 219 220 220 222 230 256 303 322 328 332 335 340 345 347 349 348 345 342 341 340 338 333 329 327 327
205 206 205 204 205 206 210 214 219 226 227 229 229 227 235 226 211 205 201 200 202 207 218 219 211 213 214 212 218 225 232 238 236 233 232 233 233 231 226 220 221 230 233 231 224 220 218 214 211 209 210 212 211 210 211 212 210 204 203 207 209 210 210 206 199 187 157 22 8 7 9 14 18 18 15 13 9 5 0 357 354 351 346 342 341 342
207 204 204 205 205 207 212 217 219 224 227 229 230 224 228 237 228 216 202 194 193 203 217 215 205 211 213 214 220 220 224 230 230 232 235 236 232 229 230 227 226 228 229 230 228 227 225 214 208 208 209 213 212 209 208 208 209 205 201 201 201 200 197 186 174 160 152 152 98 48 35 33 31 26 23 21 18 15 12 8 5 0 356 353 350 347
209 202 204 207 208 210 216 221 220 219 227 232 227 217 223 239 239 227 208 193 191 203 215 215 214 213 209 215 221 219 225 231 230 235 240 240 236 231 231 229 227 229 228 225 221 222 224 215 209 208 209 212 211 210 209 209 211 209 202 197 194 190 186 179 174 171 168 162 124 49 33 33 31 27 24 22 22 22 21 17 14 10 6 1 357 352
210 201 203 207 208 212 217 222 221 217 224 231 219 211 223 236 246 234 216 203 204 211 211 210 214 211 208 220 224 219 224 231 230 236 242 242 241 237 235 233 230 230 231 231 225 220 220 217 212 207 207 210 210 215 216 215 215 213 207 201 196 191 190 191 187 182 181 177 146 47 33 33 30 25 22 22 24 26 26 25 23 19 15 10 5 359
210 204 203 207 210 213 217 221 221 217 224 225 210 214 232 242 257 243 228 218 213 211 200 199 208 211 217 225 224 218 223 231 236 240 244 245 246 243 238 236 233 232 233 236 234 228 225 222 218 215 211 210 214 221 223 221 219 216 214 211 206 202 200 202 198 193 194 193 177 90 30 25 26 23 22 21 22 23 23 24 24 22 20 15 10 4
213 208 205 209 214 217 219 220 221 220 222 219 212 232 245 255 269 259 242 226 211 206 196 197 204 206 226 226 218 214 221 232 243 247 248 248 248 249 245 240 236 234 234 234 234 233 232 230 229 226 220 216 219 224 225 223 220 219 219 220 219 215 213 212 209 206 205 203 197 182 299 354 12 18 20 18 16 16 16 18 19 18 18 15 12 7
219 212 209 213 217 220 222 223 223 222 219 217 226 244 255 270 272 262 243 222 207 205 207 204 206 206 218 225 217 219 229 242 254 256 254 249 246 248 246 242 239 236 234 233 232 232 234 234 232 230 227 223 223 224 225 224 223 223 224 224 225 223 223 222 218 217 216 213 206 201 220 299 357 10 12 9 6 6 8 10 11 11 11 11 10 8
224 216 213 217 219 219 223 225 224 222 221 222 234 247 255 267 260 249 231 213 202 219 218 214 210 207 210 220 223 231 241 250 259 262 264 258 252 248 241 236 235 235 236 236 235 233 232 231 230 229 227 224 224 225 226 227 227 228 229 227 227 229 230 229 227 227 227 223 217 214 223 266 336 355 356 354 354 356 358 0 1 2 2 3 4 4
226 220 214 217 219 217 220 225 222 221 224 227 237 245 245 233 222 232 219 206 211 222 223 219 211 209 218 226 233 242 245 247 251 252 257 259 258 254 240 227 226 232 236 237 237 235 233 233 233 232 230 228 228 228 229 229 230 233 234 233 232 234 236 234 232 233 234 233 229 227 232 254 295 322 334 339 342 346 349 351 352 352 353 355 356 357
225 223 217 216 219 215 216 223 221 221 225 228 235 239 232 186 145 223 228 261 245 225 226 223 212 210 222 228 235 242 244 247 244 241 245 251 255 253 242 222 220 228 233 236 239 238 237 237 238 238 238 238 237 235 235 233 232 236 238 239 239 238 237 237 236 236 238 238 237 237 239 249 269 288 309 322 330 336 339 342 344 345 346 348 350 351
220 222 216 214 218 215 215 220 219 221 227 229 236 241 237 225 215 215 202 200 220 223 224 219 207 203 220 233 242 242 241 242 238 239 242 249 254 251 245 232 225 226 227 232 237 239 240 240 241 243 244 245 245 243 241 239 237 239 241 242 242 242 242 241 240 240 241 241 241 241 242 247 258 273 290 304 313 322 327 331 335 338 340 343 345 346
225 231 219 213 217 216 215 218 218 224 232 234 238 240 238 234 234 237 218 208 213 219 217 207 206 220 233 242 246 242 243 244 243 244 243 246 250 245 238 232 228 224 221 225 229 233 236 237 240 245 246 248 246 242 243 244 243 243 245 245 244 245 246 245 244 245 244 243 243 244 246 249 255 266 279 289 297 306 313 319 325 330 334 338 342 344
224 235 224 214 218 218 215 217 218 223 230 235 238 237 237 242 244 242 232 212 210 214 207 204 210 224 232 241 239 234 239 239 238 240 241 244 245 238 230 225 222 220 216 216 218 224 230 233 237 243 248 251 247 243 245 246 248 249 250 250 247 246 247 246 246 246 245 245 246 248 250 252 256 262 271 279 286 293 300 307 315 321 325 331 338 341
224 237 228 220 221 219 216 219 222 225 230 237 240 238 241 249 248 240 227 187 188 204 207 201 204 207 206 218 226 224 226 228 232 237 236 237 238 234 224 219 217 215 214 215 217 223 231 236 239 241 246 251 251 249 248 247 251 253 253 254 252 251 251 251 250 248 247 248 249 252 253 254 257 260 266 273 278 283 290 297 304 310 315 323 332 338
230 238 232 225 225 223 220 224 229 228 230 238 240 240 241 239 230 223 217 191 181 213 228 202 203 206 204 206 212 218 232 244 246 244 236 232 232 225 214 213 212 211 215 219 221 226 233 238 240 240 242 248 252 251 247 246 249 251 253 256 254 254 254 254 253 250 249 250 251 253 253 254 256 259 264 269 273 278 283 289 295 302 310 317 325 332
231 237 237 228 225 226 225 225 230 230 228 233 239 240 240 236 221 215 216 214 202 192 221 216 209 214 221 229 234 244 262 267 260 254 245 238 235 226 213 208 205 205 211 215 218 224 232 238 242 242 242 246 252 254 251 249 250 251 254 254 254 253 251 250 250 249 249 250 252 252 251 253 256 259 263 268 272 275 279 284 290 297 307 313 319 328
230 234 238 234 225 223 223 222 226 229 228 232 235 232 230 227 220 218 220 217 210 193 169 192 235 235 237 246 252 256 265 266 260 251 245 245 240 228 214 203 200 202 206 209 213 220 228 236 242 244 245 247 251 254 252 253 255 256 258 258 258 255 251 250 250 249 249 248 247 248 250 253 256 259 263 267 270 273 276 281 286 293 302 309 317 327
226 229 233 237 234 225 222 221 225 229 231 235 235 228 224 221 214 211 218 216 216 217 201 189 234 244 243 248 250 254 261 258 247 235 233 239 237 225 211 202 200 201 203 206 209 216 222 226 231 238 243 247 250 251 252 255 256 258 261 262 263 262 259 256 252 251 250 246 243 243 245 250 254 257 262 265 268 271 274 277 281 288 297 306 316 326
224 228 231 237 242 236 224 218 220 227 236 243 239 230 227 224 217 211 208 211 215 222 227 222 233 246 247 247 248 253 254 247 237 231 231 234 233 224 208 200 199 199 201 204 206 209 210 211 218 230 241 246 248 249 251 254 254 256 260 261 264 266 266 263 258 254 250 244 243 244 243 246 251 255 259 263 266 267 270 273 277 283 291 300 310 318
221 224 226 232 242 244 237 231 226 226 238 250 247 235 230 230 228 227 230 227 218 214 218 218 222 240 244 247 249 247 241 237 232 225 228 232 227 213 200 198 198 198 200 200 200 202 203 207 216 228 236 239 239 243 247 249 252 257 259 261 263 265 267 266 260 257 253 247 247 251 246 242 246 252 256 259 261 263 266 269 273 278 287 296 306 313
218 218 219 222 238 247 244 243 238 235 241 252 255 243 234 234 234 233 233 232 226 218 216 212 217 236 239 243 243 238 234 237 230 215 219 223 217 205 199 200 199 200 201 198 198 202 205 207 212 220 225 225 229 237 243 247 252 256 259 262 263 262 264 263 260 261 259 248 245 252 253 246 244 248 252 254 256 258 262 264 268 275 284 294 305 311
219 218 218 214 213 226 232 236 233 233 240 249 251 244 236 232 231 230 227 222 223 225 219 215 228 239 237 236 234 233 235 236 219 206 210 212 210 209 208 206 203 202 201 200 203 208 208 207 208 213 219 228 240 246 248 251 254 255 258 260 259 259 258 257 259 262 260 251 247 253 259 251 244 244 248 251 252 254 256 258 263 271 281 293 301 303
222 221 222 222 222 227 233 234 228 229 239 245 243 239 234 232 232 230 224 217 220 224 219 221 234 240 235 234 231 227 227 225 214 209 210 210 209 211 212 212 209 205 203 205 209 209 208 211 216 223 233 246 257 260 261 262 262 264 265 262 261 259 254 254 256 259 261 259 255 256 259 253 245 243 244 247 248 249 250 252 259 268 282 297 300 291
222 222 224 227 230 233 239 239 235 236 246 250 248 244 239 237 235 229 222 220 223 219 215 224 230 232 234 236 229 221 218 217 216 217 218 216 213 210 210 209 204 201 205 209 211 209 208 213 224 242 263 273 273 268 264 266 268 271 272 269 264 259 255 256 257 259 266 262 255 256 257 253 248 240 238 241 243 242 245 250 255 262 278 299 298 282
226 229 229 230 232 235 239 241 242 244 249 252 255 256 248 239 233 228 223 225 227 225 227 231 232 235 239 236 228 225 225 223 221 222 222 218 212 207 203 200 199 206 214 215 213 213 212 217 234 262 282 288 288 281 272 270 271 270 269 269 269 268 267 267 265 266 270 264 259 262 258 253 252 241 233 235 238 240 246 250 253 261 274 288 289 281
227 233 234 234 235 237 238 239 243 246 249 251 253 255 251 237 230 228 226 227 229 233 237 239 240 242 243 240 240 239 236 232 227 222 217 212 207 202 199 200 207 219 225 221 218 220 221 226 243 265 276 281 287 290 285 280 275 271 271 272 276 280 280 280 276 273 273 270 269 271 260 250 249 240 231 232 237 241 246 248 256 270 278 280 281 280
220 227 232 235 236 239 240 238 239 242 247 252 252 252 250 239 228 226 226 226 227 231 235 237 236 238 238 241 246 241 230 226 222 216 214 210 206 203 202 207 216 223 224 221 223 228 229 234 248 264 276 284 289 291 286 279 273 271 274 276 280 284 284 284 282 276 279 280 274 269 260 252 248 236 229 232 237 238 239 247 261 277 282 274 276 278
236 232 230 228 230 236 239 237 236 237 243 249 250 253 253 241 225 221 222 225 225 226 228 226 225 229 233 235 235 228 224 224 221 217 215 211 209 208 210 214 218 219 218 221 227 230 232 242 256 270 285 291 287 281 274 270 270 271 274 277 280 283 282 283 284 280 285 283 271 262 262 265 260 241 227 228 233 236 240 251 265 275 272 268 275 283
319 282 237 226 224 230 235 236 234 234 239 244 245 250 250 234 218 213 210 214 222 226 231 232 230 231 232 231 228 221 219 222 220 216 213 209 207 209 210 215 219 215 216 223 228 231 236 249 262 273 284 286 278 270 266 266 268 269 271 273 276 278 278 279 282 279 279 277 270 265 272 278 270 248 231 228 232 238 247 256 258 254 261 268 279 290
317 329 273 229 219 227 234 232 228 225 218 213 223 237 234 215 204 198 187 190 205 216 227 236 235 230 225 226 228 223 221 221 216 211 209 207 207 208 207 212 216 213 216 223 228 232 241 252 262 270 279 281 276 271 268 267 267 265 264 265 268 270 272 272 272 271 273 277 279 277 274 271 263 253 245 241 240 244 251 249 237 233 252 267 283 294
284 318 311 234 218 226 224 212 210 211 177 164 161 155 172 186 185 175 163 163 180 191 200 209 211 214 215 216 224 228 226 221 212 206 207 208 210 213 210 206 208 211 218 225 229 236 247 257 266 271 273 273 272 272 272 271 271 270 267 266 265 265 266 268 268 271 275 282 286 281 267 258 255 255 255 253 253 251 234 223 226 230 244 266 286 295
273 298 310 242 212 207 197 191 184 152 144 143 135 130 137 150 160 155 144 140 155 167 176 192 199 204 208 209 216 230 229 219 208 203 204 205 203 206 206 204 208 215 221 227 233 244 256 263 264 263 266 268 269 271 273 274 276 277 275 274 272 271 271 272 272 274 276 277 278 275 265 257 255 256 256 256 254 238 208 204 227 238 247 273 289 292
261 281 295 252 206 187 177 167 146 133 137 141 139 135 136 137 141 140 125 120 131 150 156 174 196 200 203 204 206 213 215 208 200 197 199 201 200 203 206 209 214 219 224 231 242 251 258 262 260 263 272 278 279 278 277 279 280 278 277 277 278 280 280 279 276 274 274 273 270 267 264 261 258 253 245 235 229 219 202 205 235 246 261 278 284 286
248 267 284 268 213 185 168 145 125 125 141 160 154 140 140 145 160 200 173 119 113 128 141 151 182 190 193 197 197 201 202 197 193 195 199 200 200 201 203 209 215 222 229 237 246 252 254 257 262 272 282 284 286 288 291 296 295 288 283 281 280 282 280 276 273 270 268 269 266 256 253 258 258 240 214 207 207 206 210 226 239 253 268 275 281 286
250 269 274 259 212 171 157 142 119 110 143 154 153 147 150 148 155 198 209 161 129 130 110 113 119 116 153 187 190 192 194 191 190 192 193 194 197 202 208 216 221 228 238 246 251 253 254 258 267 279 287 289 292 297 301 304 303 297 293 287 283 281 279 279 276 268 265 270 271 255 231 221 208 195 194 193 195 203 217 230 240 253 263 274 284 287
246 276 274 231 185 154 140 123 105 127 136 136 139 145 151 145 144 171 189 175 177 182 151 136 141 126 145 175 181 184 190 190 189 189 192 198 205 211 215 217 222 235 251 259 260 259 259 265 274 284 291 293 295 298 301 304 306 304 299 292 288 287 290 293 284 268 267 277 279 238 182 174 179 183 185 188 197 211 223 235 242 250 261 273 281 281
235 260 280 212 167 145 130 114 111 135 138 131 135 142 146 149 152 158 158 159 173 178 173 180 189 182 179 184 185 188 193 195 196 199 203 207 209 210 211 216 229 247 257 258 256 257 261 268 276 283 289 293 294 296 300 305 309 310 304 296 293 294 297 295 278 265 268 277 256 197 177 179 182 184 185 192 208 221 234 246 252 259 267 274 278 280
219 233 269 224 167 133 128 124 122 136 139 134 137 142 147 155 157 154 157 164 176 181 180 184 187 187 190 192 193 196 196 196 201 203 202 203 203 203 207 218 231 239 245 249 253 258 264 269 273 279 287 293 295 297 301 306 310 312 308 301 298 297 293 280 268 264 261 241 202 185 183 185 185 185 190 201 217 231 246 259 266 272 275 276 280 283
216 216 234 220 188 145 131 129 129 148 156 150 140 143 161 164 152 153 159 162 166 174 182 186 187 187 187 187 187 187 185 183 186 189 191 194 196 199 204 210 217 225 233 245 255 262 266 270 274 280 287 292 296 299 303 308 311 312 309 305 301 297 284 259 254 255 245 221 201 187 182 183 185 189 198 209 223 239 257 264 266 271 274 276 281 285
214 208 208 205 192 167 152 147 148 175 182 175 148 122 154 150 148 156 162 158 156 163 172 178 180 179 179 179 175 170 168 166 168 175 184 189 188 191 200 208 220 237 250 261 269 273 276 280 284 287 290 293 297 302 306 309 312 311 307 304 302 293 272 241 233 234 230 224 210 187 175 177 186 196 206 217 231 247 258 261 263 268 273 279 284 286
204 201 208 218 221 148 152 161 158 164 170 156 121 111 133 141 149 161 166 163 164 166 168 171 172 170 172 175 174 171 171 172 177 185 197 213 223 231 239 245 251 260 274 287 290 289 289 290 291 293 295 296 299 304 306 309 312 309 304 304 300 283 254 225 216 219 223 221 206 183 172 176 190 203 215 228 240 251 258 261 265 271 276 282 284 284
197 193 200 208 206 172 129 142 147 139 132 128 129 136 144 148 156 167 174 176 177 178 182 187 188 188 192 197 200 204 210 220 225 220 215 224 246 254 257 259 261 266 275 285 288 288 289 291 294 296 298 300 301 304 305 308 310 305 303 304 294 263 234 215 209 215 217 206 194 183 176 179 195 214 226 234 244 257 265 269 275 279 282 285 286 286
191 192 194 197 198 191 171 152 149 140 134 139 146 152 156 160 165 172 178 181 181 184 191 195 196 202 212 217 221 226 229 233 237 235 227 223 233 250 255 255 260 267 275 279 282 285 287 291 293 295 298 299 300 301 302 305 304 301 303 304 278 241 225 213 209 209 202 192 189 187 183 188 205 221 230 237 251 266 272 275 280 284 285 287 288 288
178 188 196 199 200 200 194 190 184 157 140 145 154 162 171 181 182 182 187 191 192 195 202 207 211 217 224 225 224 222 221 225 229 229 227 226 234 254 262 261 263 269 275 278 282 286 289 292 294 296 297 298 298 298 299 301 300 296 298 299 262 234 223 214 208 201 193 191 194 198 201 210 222 228 235 249 261 268 273 278 282 287 291 294 294 293
169 173 183 189 188 185 186 190 191 180 166 166 174 176 178 185 188 188 192 199 208 215 218 219 222 227 235 239 235 229 231 237 236 234 240 247 255 264 268 268 268 272 277 281 287 290 293 295 297 298 298 298 298 298 298 299 297 291 287 283 253 228 216 209 203 199 200 204 209 215 222 229 233 235 244 257 264 269 277 284 291 297 300 301 300 298
162 164 172 181 183 183 184 185 189 195 195 191 188 182 178 181 189 195 201 209 222 236 240 240 241 244 250 255 252 244 243 244 244 249 258 262 262 263 267 269 271 276 280 284 288 291 294 296 297 297 297 296 296 296 295 293 289 282 276 267 245 225 211 205 206 213 223 226 223 221 224 225 226 237 252 260 266 274 284 293 302 306 307 306 305 303
164 166 172 180 184 186 184 178 179 192 194 182 180 186 189 192 201 212 220 226 233 241 246 248 251 254 259 265 262 252 246 245 245 249 253 256 259 264 269 271 274 278 281 283 286 289 293 295 294 294 294 292 290 290 287 282 278 272 262 254 239 221 208 206 213 222 230 230 225 219 215 217 229 247 258 262 266 277 289 300 308 310 308 306 306 304
Height
3145 3145 3144 3145 3148 3152 3155 3157 3160 3161 3163 3165 3167 3166 3164 3164 3164 3165 3167 3168 3169 3170 3171 3172 3173 3173 3173 3174 3175 3176 3177 3178 3178 3179 3179 3179 3179 3180 3180 3181 3181 3182 3183 3184 3185 3186 3188 3189 3190 3191 3192 3193 3194 3195 3195 3196 3197 3198 3198 3199 3200 3200 3201 3201 3202 3202 3202 3202 3203 3203 3203 3203 3202 3202 3201 3201 3201 3200 3200 3199 3199 3198 3197 3196 3196 3195
3142 3141 3141 3144 3149 3153 3155 3157 3159 3160 3161 3163 3164 3165 3165 3163 3163 3164 3166 3167 3169 3170 3171 3172 3172 3172 3173 3173 3175 3176 3176 3176 3177 3178 3178 3178 3178 3178 3179 3180 3180 3181 3182 3183 3184 3185 3186 3187 3189 3190 3191 3192 3193 3194 3195 3195 3196 3197 3197 3198 3198 3199 3199 3200 3200 3201 3201 3201 3201 3201 3201 3201 3201 3200 3200 3199 3199 3199 3198 3198 3197 3196 3195 3195 3194 3193
3138 3137 3140 3146 3150 3152 3154 3156 3157 3158 3159 3160 3161 3163 3164 3163 3163 3165 3166 3167 3168 3169 3170 3171 3171 3172 3173 3173 3174 3175 3175 3176 3176 3177 3178 3178 3177 3177 3178 3178 3179 3180 3181 3182 3183 3184 3185 3186 3187 3189 3190 3191 3192 3193 3194 3194 3195 3195 3196 3197 3198 3198 3199 3199 3199 3200 3200 3200 3200 3200 3200 3200 3199 3199 3199 3198 3198 3197 3197 3196 3196 3195 3194 3193 3192 3192
3132 3134 3140 3146 3149 3151 3152 3153 3155 3156 3157 3158 3159 3160 3161 3163 3163 3164 3165 3167 3168 3168 3170 3171 3171 3172 3173 3174 3174 3174 3175 3176 3176 3177 3177 3178 3178 3178 3178 3178 3178 3179 3180 3181 3182 3183 3184 3185 3186 3187 3189 3190 3191 3192 3193 3193 3194 3194 3195 3196 3197 3197 3198 3199 3199 3199 3200 3200 3200 3200 3200 3199 3199 3199 3198 3198 3197 3196 3196 3195 3194 3194 3193 3192 3192 3191
3130 3134 3140 3144 3146 3148 3150 3151 3152 3153 3154 3156 3157 3158 3159 3162 3162 3162 3163 3166 3168 3169 3170 3171 3172 3172 3172 3172 3172 3174 3175 3175 3175 3175 3175 3176 3177 3178 3178 3178 3178 3178 3179 3181 3181 3182 3183 3184 3185 3186 3188 3189 3190 3191 3192 3192 3193 3194 3194 3195 3196 3197 3197 3198 3198 3199 3199 3199 3199 3200 3200 3199 3199 3198 3198 3197 3196 3196 3195 3194 3193 3193 3192 3191 3190 3190
3130 3135 3139 3141 3144 3146 3147 3148 3150 3151 3153 3154 3155 3156 3158 3160 3162 3163 3163 3164 3168 3169 3168 3170 3172 3171 3170 3170 3170 3172 3173 3172 3173 3173 3172 3174 3175 3176 3176 3177 3177 3178 3178 3180 3181 3182 3183 3183 3184 3185 3186 3187 3188 3189 3190 3191 3192 3192 3193 3194 3195 3195 3196 3197 3197 3198 3198 3199 3199 3199 3199 3199 3198 3198 3197 3197 3196 3195 3194 3193 3193 3192 3191 3190 3188 3187
3129 3134 3137 3138 3141 3143 3144 3145 3147 3150 3151 3151 3152 3155 3157 3159 3160 3162 3162 3162 3163 3164 3164 3167 3168 3167 3168 3168 3168 3170 3171 3170 3171 3170 3170 3172 3173 3173 3174 3175 3176 3176 3177 3178 3179 3181 3182 3183 3183 3184 3185 3186 3187 3188 3189 3190 3190 3191 3192 3193 3193 3194 3195 3196 3197 3197 3198 3199 3199 3199 3199 3198 3198 3198 3197 3196 3195 3194 3193 3193 3192 3191 3190 3189 3188 3187
3126 3132 3133 3135 3138 3140 3141 3142 3145 3148 3149 3149 3152 3154 3156 3157 3158 3159 3160 3160 3159 3160 3162 3164 3165 3166 3165 3164 3166 3169 3170 3170 3169 3168 3168 3169 3170 3171 3172 3173 3174 3175 3176 3177 3178 3179 3180 3181 3182 3183 3184 3185 3186 3187 3187 3188 3189 3190 3191 3191 3192 3193 3194 3195 3196 3197 3197 3198 3198 3198 3198 3198 3198 3198 3197 3196 3195 3194 3193 3192 3191 3190 3189 3188 3187 3186
3125 3129 3131 3133 3135 3135 3137 3140 3143 3147 3147 3149 3152 3154 3154 3155 3156 3157 3158 3157 3157 3158 3160 3161 3164 3165 3163 3162 3165 3168 3168 3167 3166 3164 3165 3165 3166 3168 3170 3171 3173 3174 3175 3176 3177 3178 3179 3181 3181 3182 3183 3184 3185 3185 3186 3187 3188 3189 3189 3190 3191 3192 3193 3194 3195 3196 3196 3197 3197 3197 3197 3197 3197 3197 3196 3195 3194 3194 3193 3192 3191 3190 3189 3187 3186 3185
3125 3127 3130 3132 3132 3132 3136 3140 3142 3144 3145 3148 3151 3152 3152 3153 3154 3155 3156 3155 3155 3155 3154 3156 3160 3161 3160 3159 3163 3165 3165 3163 3161 3161 3161 3162 3164 3166 3167 3169 3170 3172 3173 3174 3176 3177 3178 3180 3181 3181 3182 3182 3183 3184 3185 3186 3186 3187 3188 3189 3190 3191 3192 3193 3194 3194 3195 3195 3196 3196 3196 3196 3196 3196 3195 3195 3194 3194 3193 3191 3190 3189 3188 3187 3186 3184
3124 3127 3130 3130 3129 3132 3136 3139 3140 3142 3144 3147 3149 3149 3150 3151 3151 3152 3152 3152 3153 3151 3150 3152 3154 3156 3156 3156 3158 3159 3159 3158 3158 3158 3159 3160 3162 3163 3165 3166 3168 3169 3170 3172 3174 3175 3177 3178 3179 3179 3180 3181 3181 3182 3183 3184 3185 3186 3187 3188 3189 3190 3191 3191 3192 3193 3194 3194 3194 3195 3195 3195 3195 3195 3194 3194 3194 3193 3192 3190 3189 3188 3187 3186 3185 3183
3122 3124 3125 3126 3128 3132 3135 3136 3138 3141 3143 3145 3146 3147 3149 3149 3149 3150 3149 3150 3151 3149 3148 3150 3152 3153 3152 3151 3153 3153 3154 3156 3157 3157 3157 3157 3158 3159 3161 3164 3165 3166 3168 3170 3172 3173 3175 3175 3176 3176 3177 3179 3179 3180 3181 3182 3183 3184 3185 3186 3187 3188 3189 3190 3191 3191 3192 3193 3193 3194 3194 3194 3194 3193 3193 3193 3193 3192 3191 3190 3189 3187 3186 3185 3184 3183
3118 3119 3121 3124 3126 3129 3132 3133 3135 3137 3139 3141 3142 3144 3146 3147 3149 3149 3148 3148 3148 3146 3147 3148 3150 3149 3146 3146 3149 3150 3152 3154 3155 3155 3154 3154 3155 3157 3159 3161 3163 3164 3166 3167 3169 3171 3173 3173 3173 3174 3175 3176 3177 3178 3180 3181 3182 3183 3184 3185 3186 3187 3187 3188 3189 3190 3190 3191 3192 3193 3193 3193 3192 3192 3192 3192 3191 3190 3190 3189 3188 3187 3186 3185 3183 3182
3115 3117 3119 3121 3122 3125 3127 3128 3129 3132 3134 3137 3138 3140 3142 3144 3148 3149 3149 3148 3147 3144 3145 3146 3148 3146 3144 3144 3146 3148 3149 3150 3151 3152 3152 3152 3153 3155 3158 3160 3161 3162 3163 3165 3167 3169 3171 3171 3172 3173 3174 3175 3176 3177 3179 3180 3181 3182 3182 3183 3184 3185 3186 3187 3187 3188 3189 3190 3190 3191 3191 3191 3191 3191 3191 3190 3190 3189 3188 3188 3187 3186 3185 3184 3183 3181
3112 3112 3112 3115 3117 3120 3123 3124 3126 3130 3132 3134 3136 3138 3138 3138 3142 3144 3144 3144 3143 3141 3142 3144 3144 3142 3140 3141 3142 3144 3145 3146 3147 3148 3150 3151 3151 3154 3158 3159 3160 3161 3162 3163 3165 3167 3168 3170 3171 3171 3172 3173 3175 3176 3177 3178 3179 3180 3181 3182 3182 3183 3184 3185 3186 3187 3187 3188 3189 3189 3190 3190 3190 3190 3189 3189 3188 3188 3187 3187 3186 3185 3184 3183 3182 3181
3110 3107 3109 3114 3115 3117 3120 3122 3125 3128 3129 3131 3133 3134 3132 3134 3137 3138 3138 3138 3137 3138 3139 3139 3138 3136 3136 3138 3140 3142 3142 3143 3145 3146 3147 3148 3149 3151 3155 3156 3157 3159 3160 3161 3163 3164 3166 3167 3168 3169 3170 3172 3173 3174 3175 3176 3177 3178 3179 3180 3181 3182 3182 3183 3184 3185 3186 3186 3187 3188 3188 3188 3188 3188 3188 3187 3187 3186 3186 3185 3184 3184 3183 3182 3181 3180
3108 3106 3109 3113 3113 3114 3117 3120 3123 3125 3125 3127 3128 3127 3128 3132 3135 3134 3134 3135 3136 3136 3135 3134 3134 3134 3135 3136 3137 3138 3139 3139 3141 3143 3144 3145 3146 3149 3151 3152 3154 3157 3158 3159 3160 3162 3164 3165 3166 3167 3169 3170 3171 3172 3173 3174 3175 3176 3177 3178 3179 3180 3180 3181 3182 3183 3184 3184 3185 3186 3186 3186 3186 3186 3186 3186 3185 3185 3184 3183 3183 3182 3182 3181 3180 3178
3106 3106 3107 3110 3111 3112 3115 3119 3120 3121 3123 3124 3123 3124 3128 3131 3131 3131 3131 3132 3134 3134 3131 3130 3131 3132 3133 3133 3133 3135 3135 3136 3137 3139 3140 3141 3143 3146 3148 3149 3152 3154 3156 3158 3159 3160 3162 3163 3164 3166 3167 3168 3169 3170 3171 3172 3173 3174 3175 3176 3177 3178 3178 3179 3180 3181 3181 3182 3183 3183 3183 3184 3184 3184 3184 3184 3184 3183 3182 3182 3181 3181 3180 3179 3178 3177
3105 3105 3106 3107 3109 3111 3114 3116 3116 3116 3119 3120 3120 3124 3126 3126 3126 3127 3128 3129 3131 3131 3129 3127 3128 3128 3129 3130 3131 3132 3133 3134 3135 3136 3137 3138 3140 3142 3144 3146 3150 3152 3154 3156 3157 3159 3159 3160 3161 3163 3165 3166 3167 3168 3169 3171 3171 3172 3173 3174 3175 3176 3177 3177 3178 3179 3179 3180 3180 3181 3181 3182 3182 3182 3181 3181 3181 3181 3180 3180 3179 3179 3178 3177 3176 3175
3104 3104 3103 3105 3107 3109 3111 3111 3109 3110 3114 3117 3119 3121 3122 3122 3122 3122 3123 3124 3125 3127 3127 3125 3124 3123 3124 3127 3128 3130 3131 3132 3133 3134 3135 3136 3137 3139 3141 3144 3147 3150 3151 3153 3155 3156 3157 3158 3159 3161 3163 3164 3165 3166 3167 3168 3169 3170 3171 3172 3173 3174 3174 3175 3175 3176 3177 3178 3178 3179 3179 3180 3180 3180 3180 3179 3179 3179 3178 3178 3177 3177 3175 3174 3173 3172
3102 3102 3101 3102 3105 3105 3104 3104 3105 3107 3111 3114 3115 3116 3117 3118 3118 3119 3119 3119 3119 3121 3123 3123 3121 3119 3121 3124 3126 3127 3128 3129 3131 3131 3133 3134 3135 3137 3139 3142 3145 3148 3149 3151 3153 3154 3155 3156 3157 3158 3160 3162 3163 3164 3165 3165 3166 3167 3168 3170 3171 3171 3172 3172 3173 3174 3175 3175 3176 3176 3177 3177 3177 3177 3178 3177 3177 3176 3176 3176 3175 3174 3173 3172 3171 3170
3097 3098 3098 3098 3099 3099 3099 3102 3105 3107 3109 3111 3111 3112 3112 3114 3115 3116 3116 3115 3115 3117 3117 3119 3118 3116 3119 3122 3123 3125 3127 3127 3129 3130 3130 3132 3133 3135 3138 3141 3144 3146 3148 3149 3150 3151 3153 3153 3155 3156 3158 3159 3160 3161 3162 3163 3164 3165 3166 3167 3168 3169 3169 3170 3170 3171 3171 3172 3172 3174 3175 3175 3174 3174 3175 3175 3174 3174 3173 3173 3172 3172 3171 3170 3169 3168
3094 3095 3096 3095 3094 3096 3098 3101 3104 3105 3107 3108 3108 3108 3110 3110 3110 3111 3111 3112 3114 3114 3114 3115 3115 3114 3117 3120 3121 3123 3125 3125 3127 3128 3128 3129 3131 3134 3136 3139 3142 3144 3146 3147 3148 3149 3150 3151 3153 3154 3155 3156 3157 3158 3159 3160 3161 3162 3163 3164 3165 3165 3166 3167 3167 3167 3167 3167 3168 3169 3171 3170 3170 3170 3171 3171 3171 3171 3170 3170 3169 3169 3168 3168 3167 3166
3091 3091 3092 3092 3092 3093 3095 3098 3099 3101 3102 3102 3103 3104 3105 3105 3106 3108 3109 3110 3111 3110 3111 3114 3113 3112 3115 3117 3118 3120 3122 3123 3124 3125 3126 3128 3130 3132 3134 3136 3139 3141 3143 3145 3146 3147 3148 3149 3150 3151 3152 3153 3154 3155 3156 3157 3158 3159 3160 3161 3162 3162 3163 3163 3162 3162 3162 3163 3163 3164 3164 3165 3165 3166 3166 3167 3168 3168 3168 3167 3167 3166 3166 3165 3164 3164
3086 3086 3088 3090 3091 3091 3091 3092 3092 3094 3095 3096 3097 3099 3100 3102 3104 3106 3107 3108 3108 3107 3108 3110 3110 3110 3112 3114 3115 3117 3119 3120 3122 3123 3124 3126 3128 3130 3132 3134 3136 3138 3140 3142 3143 3145 3146 3146 3147 3148 3149 3150 3151 3152 3152 3153 3154 3155 3156 3157 3158 3159 3159 3159 3157 3158 3159 3159 3159 3160 3161 3160 3161 3162 3162 3163 3164 3164 3165 3165 3164 3163 3163 3162 3162 3162
3080 3081 3082 3084 3086 3086 3085 3084 3085 3088 3091 3092 3094 3095 3096 3099 3100 3101 3103 3104 3104 3104 3105 3106 3106 3108 3110 3111 3113 3115 3117 3118 3119 3121 3123 3124 3126 3128 3129 3131 3133 3135 3137 3139 3141 3142 3143 3144 3145 3146 3146 3147 3148 3148 3149 3150 3150 3151 3152 3153 3154 3155 3154 3153 3153 3154 3155 3154 3154 3155 3156 3156 3156 3157 3159 3160 3160 3160 3161 3161 3160 3160 3160 3160 3160 3160
3076 3076 3077 3078 3079 3080 3080 3081 3084 3087 3089 3090 3091 3092 3093 3095 3096 3098 3099 3098 3100 3102 3102 3102 3104 3106 3107 3109 3110 3112 3114 3115 3117 3118 3120 3122 3123 3125 3126 3128 3130 3132 3134 3136 3138 3139 3140 3141 3142 3143 3144 3144 3145 3146 3146 3147 3147 3147 3148 3149 3150 3150 3149 3148 3149 3150 3150 3149 3147 3149 3150 3151 3152 3152 3154 3155 3155 3156 3157 3157 3157 3157 3157 3157 3157 3158
3074 3073 3074 3075 3076 3076 3078 3080 3083 3085 3086 3088 3089 3089 3091 3092 3093 3093 3093 3094 3098 3099 3099 3099 3102 3102 3104 3106 3108 3109 3111 3112 3114 3115 3117 3118 3120 3122 3125 3127 3128 3130 3132 3134 3135 3136 3137 3138 3140 3140 3141 3142 3142 3143 3143 3144 3144 3144 3145 3145 3145 3144 3143 3144 3144 3145 3146 3143 3141 3143 3145 3146 3147 3147 3148 3150 3151 3151 3152 3153 3153 3153 3154 3155 3155 3155
3072 3071 3072 3073 3073 3074 3076 3078 3080 3082 3083 3085 3086 3087 3088 3089 3089 3089 3089 3092 3095 3095 3095 3098 3099 3099 3100 3103 3105 3106 3108 3109 3110 3112 3113 3115 3118 3120 3123 3125 3126 3128 3130 3131 3132 3134 3135 3137 3138 3138 3139 3139 3140 3140 3140 3141 3141 3141 3141 3141 3141 3140 3140 3141 3141 3142 3142 3138 3136 3140 3141 3140 3141 3142 3143 3145 3147 3148 3149 3150 3150 3150 3151 3153 3154 3153
3069 3069 3070 3072 3072 3072 3074 3075 3077 3079 3080 3081 3082 3084 3084 3085 3085 3085 3087 3089 3090 3091 3093 3096 3096 3096 3098 3101 3102 3104 3105 3106 3108 3109 3111 3114 3116 3118 3120 3122 3124 3126 3127 3128 3130 3132 3134 3135 3136 3136 3137 3137 3138 3138 3137 3138 3138 3138 3138 3137 3138 3138 3137 3137 3137 3137 3136 3134 3132 3134 3134 3133 3134 3137 3140 3142 3144 3146 3147 3147 3147 3148 3149 3150 3151 3150
3065 3065 3067 3070 3070 3069 3071 3073 3075 3076 3077 3078 3078 3079 3081 3081 3082 3082 3083 3085 3087 3088 3091 3093 3093 3094 3096 3099 3100 3101 3102 3104 3105 3107 3109 3112 3114 3116 3118 3120 3122 3124 3126 3127 3129 3131 3132 3133 3134 3134 3135 3135 3135 3135 3135 3135 3135 3135 3135 3135 3135 3135 3134 3134 3134 3133 3132 3131 3127 3127 3129 3130 3134 3137 3138 3140 3142 3144 3144 3144 3146 3147 3147 3147 3148 3148
3063 3064 3064 3066 3067 3066 3067 3071 3072 3073 3075 3075 3074 3074 3076 3077 3078 3079 3080 3082 3083 3086 3088 3089 3088 3090 3094 3096 3097 3098 3100 3101 3103 3105 3107 3109 3111 3113 3116 3118 3121 3123 3125 3127 3128 3130 3131 3132 3132 3132 3132 3132 3133 3133 3133 3133 3132 3132 3133 3133 3133 3133 3132 3131 3131 3130 3130 3128 3124 3125 3129 3133 3136 3138 3137 3138 3139 3139 3140 3143 3145 3145 3145 3145 3146 3145
3062 3061 3061 3062 3062 3062 3064 3068 3069 3071 3073 3071 3070 3071 3072 3073 3075 3076 3077 3079 3080 3083 3085 3085 3085 3088 3091 3092 3093 3095 3097 3099 3101 3103 3105 3107 3109 3112 3115 3117 3120 3122 3124 3126 3127 3128 3129 3130 3130 3130 3130 3130 3130 3130 3130 3130 3129 3130 3131 3131 3131 3130 3129 3129 3128 3127 3126 3124 3123 3127 3130 3131 3132 3134 3133 3134 3134 3134 3137 3141 3142 3142 3143 3143 3143 3142
3059 3059 3058 3059 3059 3059 3062 3065 3067 3069 3069 3068 3069 3070 3070 3070 3071 3072 3074 3075 3077 3080 3082 3083 3084 3087 3088 3089 3090 3092 3094 3096 3099 3101 3104 3107 3109 3112 3114 3117 3119 3121 3123 3124 3126 3127 3127 3128 3128 3128 3127 3127 3127 3126 3126 3126 3126 3127 3127 3128 3128 3127 3126 3125 3123 3121 3120 3119 3121 3125 3125 3124 3124 3125 3127 3128 3129 3131 3135 3138 3137 3138 3140 3141 3140 3139
3057 3057 3057 3056 3056 3056 3059 3062 3064 3065 3064 3065 3067 3067 3069 3070 3069 3069 3071 3073 3075 3078 3080 3082 3083 3084 3085 3087 3089 3091 3093 3095 3098 3102 3105 3108 3110 3112 3113 3115 3118 3120 3121 3122 3124 3125 3125 3125 3125 3125 3125 3124 3124 3123 3123 3123 3123 3123 3123 3123 3123 3122 3121 3120 3118 3117 3117 3116 3118 3119 3118 3117 3117 3118 3121 3123 3126 3130 3133 3134 3134 3135 3137 3137 3137 3136
3056 3056 3055 3055 3054 3054 3056 3057 3059 3061 3062 3064 3064 3065 3067 3070 3070 3069 3070 3072 3074 3076 3078 3080 3082 3083 3084 3085 3087 3089 3091 3094 3098 3102 3105 3107 3108 3110 3112 3114 3116 3118 3119 3121 3122 3123 3123 3123 3122 3122 3122 3121 3121 3121 3120 3120 3120 3120 3120 3120 3119 3118 3117 3116 3115 3114 3112 3111 3112 3113 3112 3112 3113 3116 3119 3122 3125 3127 3129 3131 3132 3133 3133 3134 3134 3133
3054 3054 3054 3054 3053 3051 3053 3055 3057 3059 3062 3063 3063 3062 3063 3066 3069 3070 3071 3072 3074 3075 3077 3079 3080 3082 3083 3083 3085 3087 3089 3093 3097 3100 3102 3104 3106 3108 3110 3112 3114 3116 3118 3119 3120 3120 3120 3120 3120 3119 3119 3119 3118 3118 3117 3117 3117 3117 3116 3116 3116 3115 3114 3113 3111 3109 3106 3104 3105 3107 3108 3109 3111 3114 3118 3120 3123 3125 3127 3128 3129 3130 3131 3132 3131 3131
3052 3052 3053 3053 3052 3049 3051 3054 3057 3059 3061 3062 3062 3061 3061 3063 3067 3071 3073 3074 3075 3075 3076 3077 3079 3080 3082 3083 3084 3085 3088 3091 3094 3097 3099 3102 3104 3105 3108 3110 3112 3114 3116 3117 3118 3118 3117 3117 3117 3117 3117 3117 3117 3116 3114 3113 3113 3113 3113 3113 3112 3111 3110 3109 3106 3104 3100 3098 3099 3101 3102 3105 3108 3111 3114 3116 3120 3123 3125 3126 3127 3128 3129 3130 3129 3128
3050 3051 3051 3052 3051 3049 3048 3051 3055 3058 3060 3061 3061 3061 3062 3064 3067 3070 3074 3075 3075 3077 3077 3077 3078 3079 3081 3083 3084 3085 3087 3090 3092 3095 3098 3100 3102 3105 3107 3108 3110 3112 3113 3114 3114 3115 3115 3115 3114 3114 3115 3115 3114 3113 3112 3110 3109 3109 3109 3108 3107 3107 3106 3104 3102 3099 3095 3095 3098 3098 3099 3103 3106 3108 3111 3114 3118 3121 3123 3124 3124 3126 3127 3127 3127 3126
3049 3050 3050 3050 3050 3048 3047 3049 3053 3057 3059 3060 3061 3062 3063 3065 3066 3069 3072 3074 3075 3077 3077 3078 3080 3082 3083 3085 3087 3088 3090 3091 3093 3095 3098 3100 3102 3104 3105 3106 3108 3109 3110 3111 3112 3112 3112 3112 3112 3112 3112 3112 3111 3111 3109 3107 3106 3105 3105 3104 3103 3102 3101 3100 3098 3095 3094 3097 3101 3100 3099 3103 3106 3107 3110 3113 3116 3119 3121 3121 3122 3123 3124 3125 3124 3122
3049 3051 3051 3050 3050 3049 3048 3049 3052 3056 3058 3059 3060 3062 3063 3064 3065 3067 3069 3072 3074 3075 3075 3078 3082 3084 3085 3086 3088 3089 3091 3093 3094 3095 3097 3098 3100 3101 3102 3104 3105 3106 3108 3109 3109 3110 3110 3109 3109 3109 3109 3109 3108 3108 3106 3104 3103 3102 3101 3100 3099 3098 3097 3095 3094 3092 3093 3098 3101 3100 3099 3102 3105 3107 3109 3112 3114 3116 3118 3118 3119 3120 3121 3121 3120 3118
3049 3052 3052 3051 3050 3050 3049 3050 3053 3055 3057 3058 3060 3061 3062 3063 3064 3065 3068 3070 3072 3073 3074 3077 3079 3082 3083 3085 3086 3087 3089 3091 3092 3094 3095 3096 3097 3099 3100 3102 3103 3104 3105 3106 3106 3106 3106 3106 3106 3106 3106 3106 3105 3104 3103 3101 3099 3098 3097 3096 3095 3093 3092 3091 3090 3090 3092 3095 3097 3097 3098 3101 3104 3106 3108 3110 3112 3114 3115 3116 3117 3117 3118 3118 3117 3115
3047 3051 3053 3053 3051 3050 3050 3051 3053 3055 3056 3057 3058 3059 3061 3062 3063 3065 3067 3069 3070 3072 3074 3075 3077 3079 3081 3082 3083 3085 3087 3089 3091 3093 3094 3095 3096 3097 3098 3100 3101 3102 3103 3103 3104 3103 3103 3103 3103 3103 3103 3102 3101 3100 3099 3097 3096 3094 3093 3092 3090 3089 3088 3087 3087 3088 3091 3093 3094 3093 3095 3099 3102 3104 3106 3108 3110 3111 3113 3114 3114 3115 3115 3115 3113 3112
3045 3048 3052 3053 3052 3050 3050 3050 3052 3054 3056 3057 3059 3060 3062 3063 3065 3066 3066 3068 3070 3072 3073 3075 3077 3078 3079 3081 3082 3083 3085 3088 3090 3093 3095 3095 3095 3096 3097 3098 3099 3100 3100 3101 3101 3100 3100 3100 3100 3100 3099 3098 3097 3096 3094 3093 3092 3090 3089 3087 3086 3085 3083 3083 3084 3086 3089 3092 3092 3091 3092 3097 3101 3103 3105 3107 3108 3109 3111 3111 3111 3111 3111 3111 3109 3108
3043 3045 3048 3051 3051 3050 3049 3050 3051 3054 3056 3059 3061 3063 3064 3066 3067 3068 3068 3069 3070 3072 3073 3075 3077 3078 3079 3080 3081 3082 3084 3086 3088 3091 3093 3095 3095 3095 3095 3095 3096 3096 3097 3097 3097 3097 3097 3097 3096 3096 3095 3094 3093 3092 3090 3089 3088 3086 3085 3083 3083 3082 3080 3080 3082 3085 3088 3090 3092 3091 3091 3095 3099 3102 3104 3105 3107 3107 3108 3109 3108 3108 3107 3106 3105 3103
3040 3043 3044 3047 3049 3050 3050 3050 3052 3054 3056 3059 3062 3064 3066 3067 3068 3069 3070 3071 3071 3072 3073 3074 3076 3078 3079 3080 3082 3083 3084 3084 3085 3087 3089 3090 3092 3093 3093 3093 3094 3094 3095 3094 3094 3094 3094 3093 3093 3092 3091 3090 3089 3088 3087 3086 3084 3083 3081 3080 3080 3080 3079 3079 3081 3084 3087 3090 3092 3091 3090 3093 3097 3100 3102 3103 3104 3105 3106 3106 3105 3104 3103 3102 3100 3099
3038 3041 3041 3043 3045 3048 3049 3051 3053 3054 3056 3059 3062 3064 3065 3067 3068 3069 3070 3070 3071 3072 3073 3074 3076 3077 3078 3079 3081 3082 3083 3083 3084 3085 3086 3086 3087 3089 3091 3092 3092 3093 3093 3092 3092 3091 3090 3090 3089 3088 3087 3086 3085 3084 3083 3082 3081 3080 3079 3079 3079 3079 3079 3080 3081 3083 3085 3088 3089 3089 3089 3091 3094 3097 3098 3099 3101 3102 3102 3102 3101 3100 3099 3097 3096 3094
3035 3038 3040 3041 3043 3046 3048 3051 3053 3055 3057 3059 3061 3063 3064 3066 3068 3069 3070 3070 3071 3071 3072 3074 3075 3077 3078 3079 3080 3080 3081 3082 3083 3084 3085 3085 3086 3088 3090 3091 3091 3090 3090 3090 3089 3088 3087 3086 3086 3085 3084 3083 3082 3081 3080 3079 3078 3077 3077 3077 3077 3078 3079 3080 3080 3081 3084 3085 3085 3085 3085 3088 3091 3093 3095 3096 3098 3098 3098 3098 3097 3096 3094 3093 3092 3090
3032 3036 3038 3039 3041 3044 3046 3048 3051 3054 3057 3059 3060 3062 3063 3065 3067 3068 3068 3069 3069 3069 3070 3072 3073 3075 3077 3077 3079 3080 3081 3081 3082 3083 3083 3084 3086 3088 3089 3088 3087 3087 3086 3086 3085 3084 3083 3082 3081 3081 3080 3079 3078 3077 3077 3076 3075 3075 3074 3075 3076 3077 3078 3079 3080 3081 3082 3082 3081 3081 3083 3086 3089 3091 3092 3094 3094 3094 3094 3093 3092 3091 3090 3089 3087 3086
3030 3033 3036 3038 3039 3041 3044 3046 3049 3052 3054 3056 3058 3061 3062 3064 3065 3066 3066 3066 3067 3067 3068 3068 3069 3071 3073 3074 3076 3078 3079 3080 3081 3082 3082 3083 3084 3085 3085 3084 3083 3083 3082 3082 3081 3080 3079 3078 3077 3076 3076 3076 3075 3074 3074 3073 3073 3072 3072 3073 3074 3075 3077 3078 3079 3080 3080 3080 3080 3081 3083 3084 3086 3088 3090 3091 3091 3091 3090 3089 3088 3087 3086 3085 3084 3082
3028 3031 3034 3037 3039 3040 3043 3046 3049 3050 3051 3053 3056 3059 3060 3062 3063 3063 3063 3064 3065 3065 3065 3065 3065 3067 3068 3070 3072 3074 3075 3076 3078 3079 3080 3080 3081 3081 3080 3080 3079 3079 3078 3078 3077 3076 3075 3074 3073 3073 3073 3073 3072 3072 3071 3071 3071 3070 3071 3071 3073 3074 3075 3076 3077 3077 3077 3078 3079 3080 3080 3081 3083 3085 3087 3087 3087 3087 3086 3085 3084 3083 3083 3082 3080 3079